Weather in Pavlovsk

Russia / Sakha (Yakutia) Republic     61°52′13″N   129°50′57″E
temp.,
°C
wind,
m/s
gust,
m/s
humid.,
%
clouds,
%
prec.,
mm/h
press.,
hPa
HPBL,
m
24 january, sun
sun2400:00−48wsw129488 0.0 103718
03:00−48wsw229493 0.0 103931
06:00−48wsw229392 0.0 104038
09:00−50wsw119553 0.0 104318
12:00−45wsw259496 0.0 1044233
15:00−43sw249495 0.0 1045132
18:00−45w229480 0.0 104826
21:00−46w129585 0.0 104918
25 january, mon
mon2500:00−47wsw129696 0.0 105018
03:00−47wsw119792 0.0 105118
06:00−48sw119768 0.0 105218
09:00−48ssw019770 0.0 105218
12:00−44ese009458 0.0 1052116
15:00−46ene119554 0.0 105118
18:00−49ne129652 0.0 105218
21:00−48ne229656 0.0 105218
26 january, tue
tue2600:00−49nne229754 0.0 105222
03:00−49nne229758 0.0 105126
06:00−49nne229758 0.0 105131
09:00−50nne229759 0.0 104926
12:00−46nne239660 0.0 1047124
15:00−46n239657 0.0 1046124
18:00−48n229756 0.0 104519
21:00−49n129757 0.0 104418
27 january, wed
wed2700:00−49nnw119659 0.0 104418
03:00−49wsw119659 0.0 104318
06:00−48wsw129656 0.0 104318
09:00−48wsw229658 0.0 104318
12:00−44wsw129456 0.0 1042140
15:00−42wsw129559 0.0 104187
18:00−45w129563 0.0 104218
21:00−45w229459 0.0 104119
28 january, thu
thu2800:00−46wsw229562 0.0 104119
03:00−47wsw229673 0.0 104039
06:00−47wsw229575 0.0 104029
09:00−47wsw229573 0.0 104024
12:00−43wsw239480 0.0 1039200
15:00−41wsw259370 0.0 1034271
18:00−44w239570 0.0 103350
21:00−45w229467 0.0 103224